When you browse on this site, cookies collect data to enhance your experience and personalize the content and advertising you see.
Visit our Privacy Policy to learn more. By continuing to use the site, you agree to this use of cookies and data.
  • In Sweden
  • List of Countries
  • For 7 days
  • Water Temperature
  • Satellite Maps
  • Weather Map
  • Weather Widgets
  • user-avatar
    Login

    Hourly Weather Gieski

    Today, 18 February, Monday

    Time Temperature Precipitation Wind Pressure Humidity
    00:00 +5°C° 0 mm 1 mps 749 mmHg 81%
    01:00 +4°C° 0 mm 1 mps 748 mmHg 81%
    02:00 +4°C° 0 mm 1 mps 748 mmHg 81%
    03:00 +4°C° 0 mm 1 mps 748 mmHg 81%
    04:00 +3°C° 0 mm 1 mps 748 mmHg 82%
    05:00 +3°C° 0 mm 1 mps 748 mmHg 82%
    06:00 +3°C° 0 mm 1 mps 748 mmHg 82%
    07:00 +3°C° 0 mm 1 mps 748 mmHg 80%
    08:00 +4°C° 0 mm 1 mps 748 mmHg 74%
    09:00 +5°C° 0 mm 1 mps 748 mmHg 69%
    10:00 +5°C° 0 mm 2 mps 748 mmHg 63%
    11:00 +7°C° 0 mm 2 mps 747 mmHg 58%
    12:00 +8°C° 0 mm 2 mps 747 mmHg 53%
    13:00 +9°C° 0 mm 2 mps 747 mmHg 48%
    14:00 +9°C° 0 mm 2 mps 747 mmHg 50%
    15:00 +9°C° 0 mm 2 mps 746 mmHg 51%
    16:00 +9°C° 0 mm 2 mps 746 mmHg 52%
    17:00 +8°C° 0 mm 2 mps 746 mmHg 56%
    18:00 +7°C° 0 mm 2 mps 745 mmHg 59%
    19:00 +6°C° 0 mm 2 mps 745 mmHg 63%
    20:00 +5°C° 0 mm 2 mps 745 mmHg 66%
    21:00 +4°C° 0 mm 3 mps 745 mmHg 69%
    22:00 +3°C° 0 mm 3 mps 745 mmHg 72%
    23:00 +3°C° 0 mm 3 mps 745 mmHg 74%

    Tomorrow, 19 February, Tuesday

    Time Temperature Precipitation Wind Pressure Humidity
    00:00 +2°C° 0 mm 3 mps 745 mmHg 76%
    01:00 +2°C° 0 mm 3 mps 744 mmHg 77%
    02:00 +2°C° 0 mm 3 mps 744 mmHg 78%
    03:00 +1°C° 0 mm 3 mps 744 mmHg 78%
    04:00 +1°C° 0 mm 3 mps 744 mmHg 78%
    05:00 +1°C° 0 mm 3 mps 743 mmHg 79%
    06:00 0°C° 0 mm 4 mps 743 mmHg 79%
    07:00 0°C° 0 mm 4 mps 743 mmHg 80%
    08:00 +1°C° 0 mm 4 mps 743 mmHg 74%
    09:00 +3°C° 0 mm 5 mps 743 mmHg 68%
    10:00 +5°C° 0 mm 5 mps 742 mmHg 62%
    11:00 +6°C° 0 mm 5 mps 742 mmHg 58%
    12:00 +8°C° 0 mm 5 mps 742 mmHg 55%
    13:00 +9°C° 0 mm 5 mps 742 mmHg 52%
    14:00 +8°C° 0 mm 4 mps 741 mmHg 53%
    15:00 +8°C° 0 mm 4 mps 741 mmHg 55%
    16:00 +8°C° 0 mm 4 mps 741 mmHg 56%
    17:00 +7°C° 0 mm 4 mps 741 mmHg 60%
    18:00 +6°C° 0 mm 4 mps 741 mmHg 64%
    19:00 +5°C° 0 mm 4 mps 742 mmHg 69%
    20:00 +5°C° 0.2 mm 5 mps 742 mmHg 73%
    21:00 +5°C° 0.2 mm 5 mps 742 mmHg 77%
    22:00 +5°C° 0.2 mm 5 mps 742 mmHg 82%
    23:00 +3°C° 0.3 mm 5 mps 742 mmHg 85%

    Day after tomorrow, 20 February, Wednesday

    Time Temperature Precipitation Wind Pressure Humidity
    00:00 +4°C° 0.3 mm 4 mps 742 mmHg 88%
    01:00 +4°C° 0.3 mm 4 mps 742 mmHg 91%
    02:00 +3°C° 0 mm 4 mps 742 mmHg 90%
    03:00 +2°C° 0 mm 5 mps 742 mmHg 90%
    04:00 +2°C° 0 mm 5 mps 742 mmHg 90%
    05:00 +2°C° 0.1 mm 6 mps 743 mmHg 89%
    06:00 +2°C° 0.1 mm 6 mps 743 mmHg 87%
    07:00 +2°C° 0.1 mm 6 mps 744 mmHg 86%
    08:00 +3°C° 0.1 mm 6 mps 744 mmHg 81%
    09:00 +3°C° 0.1 mm 6 mps 744 mmHg 75%
    10:00 +3°C° 0.1 mm 7 mps 745 mmHg 70%
    11:00 +4°C° 0 mm 7 mps 745 mmHg 69%
    12:00 +4°C° 0 mm 6 mps 745 mmHg 68%
    13:00 +4°C° 0 mm 6 mps 745 mmHg 67%
    14:00 +4°C° 0 mm 6 mps 745 mmHg 68%
    15:00 +5°C° 0 mm 5 mps 746 mmHg 69%
    16:00 +5°C° 0 mm 5 mps 746 mmHg 70%
    17:00 +4°C° 0 mm 4 mps 746 mmHg 72%
    18:00 +4°C° 0 mm 4 mps 746 mmHg 74%
    19:00 +4°C° 0 mm 3 mps 747 mmHg 75%
    20:00 +4°C° 0 mm 4 mps 747 mmHg 77%
    21:00 +4°C° 0 mm 4 mps 747 mmHg 79%
    22:00 +4°C° 0 mm 4 mps 747 mmHg 81%
    23:00 +4°C° 0 mm 4 mps 747 mmHg 82%

    21 February, Thursday

    Time Temperature Precipitation Wind Pressure Humidity
    00:00 +4°C° 0 mm 4 mps 747 mmHg 84%
    01:00 +4°C° 0 mm 4 mps 747 mmHg 85%
    02:00 +3°C° 0.1 mm 4 mps 747 mmHg 85%
    03:00 +2°C° 0.1 mm 5 mps 746 mmHg 85%
    04:00 +2°C° 0.1 mm 5 mps 746 mmHg 85%
    05:00 +2°C° 0.1 mm 5 mps 746 mmHg 85%
    06:00 +2°C° 0.1 mm 5 mps 746 mmHg 84%
    07:00 +2°C° 0.1 mm 5 mps 746 mmHg 84%
    08:00 +2°C° 0.6 mm 6 mps 746 mmHg 85%
    09:00 +2°C° 0.6 mm 6 mps 746 mmHg 86%
    10:00 +3°C° 0.6 mm 7 mps 746 mmHg 86%
    11:00 +3°C° 0.5 mm 6 mps 746 mmHg 88%
    12:00 +3°C° 0.5 mm 6 mps 746 mmHg 89%
    13:00 +3°C° 0.5 mm 6 mps 746 mmHg 90%
    14:00 +4°C° 0.2 mm 6 mps 746 mmHg 90%
    15:00 +4°C° 0.2 mm 6 mps 746 mmHg 90%
    16:00 +5°C° 0.2 mm 5 mps 746 mmHg 91%
    17:00 +5°C° 0.2 mm 5 mps 746 mmHg 91%
    18:00 +5°C° 0.2 mm 5 mps 747 mmHg 92%
    19:00 +5°C° 0.2 mm 5 mps 747 mmHg 93%
    20:00 +5°C° 0.1 mm 5 mps 747 mmHg 93%
    21:00 +5°C° 0.1 mm 5 mps 748 mmHg 93%
    22:00 +5°C° 0.1 mm 5 mps 748 mmHg 93%
    23:00 +5°C° 0 mm 5 mps 748 mmHg 90%

    22 February, Friday

    Time Temperature Precipitation Wind Pressure Humidity
    00:00 +5°C° 0 mm 5 mps 749 mmHg 88%
    01:00 +5°C° 0 mm 5 mps 749 mmHg 85%
    02:00 +4°C° 0.2 mm 6 mps 749 mmHg 86%
    03:00 +3°C° 0.2 mm 6 mps 750 mmHg 87%
    04:00 +3°C° 0.2 mm 7 mps 750 mmHg 88%
    05:00 +3°C° 0 mm 6 mps 751 mmHg 86%
    06:00 +2°C° 0 mm 6 mps 752 mmHg 84%
    07:00 +1°C° 0 mm 6 mps 753 mmHg 83%
    08:00 +1°C° 0 mm 5 mps 754 mmHg 78%
    09:00 +1°C° 0 mm 5 mps 755 mmHg 74%
    10:00 0°C° 0 mm 4 mps 756 mmHg 70%
    11:00 +1°C° 0 mm 4 mps 756 mmHg 65%
    12:00 +1°C° 0 mm 4 mps 757 mmHg 60%
    13:00 +3°C° 0 mm 4 mps 757 mmHg 56%
    14:00 +3°C° 0 mm 4 mps 758 mmHg 54%
    15:00 +1°C° 0 mm 4 mps 758 mmHg 52%
    16:00 +2°C° 0 mm 3 mps 758 mmHg 50%
    17:00 +1°C° 0 mm 3 mps 759 mmHg 53%
    18:00 0°C° 0 mm 3 mps 760 mmHg 56%
    19:00 +1°C° 0 mm 2 mps 760 mmHg 60%
    20:00 -1°C° 0 mm 2 mps 761 mmHg 61%
    21:00 -1°C° 0 mm 2 mps 761 mmHg 62%
    22:00 -2°C° 0 mm 2 mps 761 mmHg 64%
    23:00 -2°C° 0 mm 2 mps 761 mmHg 62%

    23 February, Saturday

    Time Temperature Precipitation Wind Pressure Humidity
    00:00 -2°C° 0 mm 2 mps 761 mmHg 61%
    01:00 -2°C° 0 mm 3 mps 761 mmHg 60%
    02:00 -2°C° 0 mm 3 mps 761 mmHg 59%
    03:00 -2°C° 0 mm 2 mps 761 mmHg 58%
    04:00 -2°C° 0 mm 2 mps 761 mmHg 58%
    05:00 -2°C° 0 mm 2 mps 760 mmHg 57%
    06:00 -2°C° 0 mm 2 mps 760 mmHg 57%
    07:00 -1°C° 0 mm 2 mps 760 mmHg 57%
    08:00 0°C° 0 mm 3 mps 759 mmHg 54%
    09:00 +1°C° 0 mm 3 mps 759 mmHg 52%
    10:00 +1°C° 0 mm 4 mps 758 mmHg 50%
    11:00 +3°C° 0 mm 4 mps 758 mmHg 53%
    12:00 +3°C° 0 mm 4 mps 757 mmHg 56%
    13:00 +3°C° 0 mm 5 mps 757 mmHg 60%
    14:00 +3°C° 0 mm 5 mps 756 mmHg 67%
    15:00 +3°C° 0 mm 5 mps 756 mmHg 74%
    16:00 +3°C° 0 mm 5 mps 755 mmHg 82%
    17:00 +3°C° 0 mm 5 mps 755 mmHg 85%
    18:00 +3°C° 0 mm 5 mps 755 mmHg 89%
    19:00 +4°C° 0 mm 4 mps 755 mmHg 93%
    20:00 +4°C° 0 mm 4 mps 755 mmHg 93%
    21:00 +4°C° 0 mm 4 mps 755 mmHg 94%
    22:00 +4°C° 0 mm 4 mps 755 mmHg 94%
    23:00 +3°C° 0 mm 4 mps 754 mmHg 94%
    Show more